Tracking 30505 objects as of 23-May-2025
HD Live streaming from Space Station
objects crossing your sky now

STARLINK-32928

Track STARLINK-32928 now!
10-day predictions
STARLINK-32928 is classified as:


NORAD ID: 63564
Int'l Code: 2025-075S
Perigee: 450.2 km
Apogee: 452.2 km
Inclination: 43.0 °
Period: 93.5 minutes
Semi major axis: 6822 km
RCS: Unknown
Launch date: April 13, 2025
Source: United States (US)
Launch site: AIR FORCE EASTERN TEST RANGE (AFETR)
Your satellite tracking list
Your tracking list is empty




NASA's NSSDC Master Catalog

Two Line Element Set (TLE):
1 63564U 25075S   25143.16668981  .00002243  00000-0  60975-4 0  9995
2 63564  42.9989 113.1972 0001464 268.1740 120.8241 15.40684965  7478
Source of the keplerian elements: AFSPC